Погода в Моламьяйне

Мьянма     16°29′14″N   97°37′52″E
темп.,
°C
ветер,
м/с
пор.,
м/с
влажн.,
%
обл.,
%
осадки,
мм/ч
давл.,
гПа
погр.,
м
19 апреля, пн
пн1900:30+26ююв25820 0.4 1009146
03:30+25юв118421 0.1 100912
06:30+25в11845 0.8 101097
09:30+30ю2265100 0.1 10111081
12:30+32зюз325298 1.3 10091696
15:30+32юз425197 0.1 10061246
18:30+29ююз57675 0.1 1006263
21:30+28юз487395 0.1 1008418
20 апреля, вт
вт2000:30+26ю13845 2.0 100975
03:30+25юв249048 0.8 1008107
06:30+25ююв24878 0.8 1010162
09:30+30ююз336344 0.1 10111220
12:30+32зюз435599 0.2 10081340
15:30+32зюз655434 0.0 1006980
18:30+28зюз47675 0.0 1007233
21:30+27ю23795 0.0 100980
21 апреля, ср
ср2100:30+26ююв23835 0.0 100971
03:30+26ю11833 0.3 100817
06:30+27ююв118112 0.4 101068
09:30+31з225947 0.2 10121317
12:30+34зюз534718 0.3 10091726
15:30+33зюз65483 0.0 1006938
18:30+29юз48660 0.0 1007349
21:30+28ю36740 0.0 1010245
22 апреля, чт
чт2200:30+28юз257545 0.0 1009181
03:30+27юз127924 0.2 100846
06:30+28з357791 0.8 1010372
09:30+32з335624 0.1 10111318
12:30+34зюз644731 0.2 10081668
15:30+33зюз54451 0.0 10061104
18:30+29юз46590 0.0 1007331
21:30+28ююз37715 0.0 1008345
23 апреля, пт
пт2300:30+28юз267635 0.1 1008224
03:30+27ююз257930 0.6 1007157
06:30+28з24750 0.7 1009224
09:30+32зюз335321 0.0 10101354
12:30+35зюз64445 0.0 10071577
15:30+34зюз65434 0.0 10051201
18:30+29юз586027 0.0 1006447
21:30+29ююз48690 0.0 1008593